Notices

What's New in latest Release from April 7th, 2021:

- Updated Glossary, including Speed of Maximum Gust, and Total Hourly Precipitation

- Updated national and regional climate services offices contacts and prices information

- Addition of station inventory lists for 1981-2010, 1971-2000, and 1961-1990 Normals.

If you haven't already, please take our survey and provide feedback about our website: https://eccc.sondage-survey.ca/f/LanguageSelection.aspx?s=442ca660-fcf1-47c0-95a9-59707d6fd709

Hourly Data Report for May 20, 2020

MIRAMICHI RCS
NEW BRUNSWICK
Current Station Operator: ECCC - MSC

47°00'34.000" N
65°27'54.000" W
33.00 m
8100989
71744
ACQ

Download Data

Hourly Data (May 2020)
Hourly Data Report for May 20, 2020
TIME
LST
Temp Definition
°C
Dew Point Definition
°C
Rel Hum Definition
%
Precip. Amount Definition
mm

Wind Dir Definition
10's deg

Wind Spd Definition
km/h
Visibility Definition
km
Stn Press Definition
kPa
Hmdx Definition


Wind Chill Definition


Weather Definition


00:00 1.5 -0.8 85 LegendMM 25 3   102.67     LegendNANA
01:00 1.9 -0.6 83 LegendMM 26 6   102.67     LegendNANA
02:00 2.0 -0.5 83 LegendMM 26 9   102.66     LegendNANA
03:00 2.0 -0.3 85 LegendMM 25 7   102.64     LegendNANA
04:00 1.4 -0.4 88 LegendMM 25 7   102.60     LegendNANA
05:00 0.9 -0.6 90 LegendMM 24 7   102.61     LegendNANA
06:00 2.5 -0.4 81 LegendMM 28 10   102.58     LegendNANA
07:00 5.4 0.8 72 LegendMM 25 9   102.61     LegendNANA
08:00 9.4 0.2 53 LegendMM 25 10   102.60     LegendNANA
09:00 12.9 1.2 45 LegendMM 26 9   102.56     LegendNANA
10:00 16.5 0.6 34 LegendMM 24 12   102.50     LegendNANA
11:00 18.7 0.9 30 LegendMM 29 10   102.43     LegendNANA
12:00 19.5 2.4 32 LegendMM 31 10   102.35     LegendNANA
13:00 20.7 3.5 32 LegendMM 32 9   102.28     LegendNANA
14:00 22.0 7.1 38 LegendMM 31 11   102.23     LegendNANA
15:00 21.9 4.4 32 LegendMM 35 10   102.18     LegendNANA
16:00 22.8 9.1 42 LegendMM 5 10   102.11     LegendNANA
17:00 22.7 4.5 31 LegendMM 11 10   102.05     LegendNANA
18:00 21.8 6.6 37 LegendMM 11 15   101.99     LegendNANA
19:00 20.5 6.7 41 LegendMM 15 17   101.97     LegendNANA
20:00 17.1 2.7 38 LegendMM 17 12   101.97     LegendNANA
21:00 15.2 2.4 42 LegendMM 17 11   101.95     LegendNANA
22:00 14.3 1.7 42 LegendMM 22 7   101.94     LegendNANA
23:00 13.2 2.8 49 LegendMM 21 9   101.87     LegendNANA

Notes on Data Quality.

Legend

  • E = Estimated
  • M = Missing
  • NA = Not Available*
  • [empty] = Indicates an unobserved value
Date modified: